owner,sensor,date,latitude,longitude,vertical_datum,sea_water_practical_salinity,qcFlag 
DISL,ioos:station:DISL:BSCA:1,2018-07-01T00:00:00Z,30.3288,-87.8293,1.9,10.0,11111222 
DISL,ioos:station:DISL:BSCA:1,2018-07-01T00:30:00Z,30.3288,-87.8293,1.9,10.1,11111222 
DISL,ioos:station:DISL:BSCA:1,2018-07-01T01:00:00Z,30.3288,-87.8293,1.9,10.0,11111222 
DISL,ioos:station:DISL:BSCA:1,2018-07-01T01:30:00Z,30.3288,-87.8293,1.8,10.1,11111222 
DISL,ioos:station:DISL:BSCA:1,2018-07-01T02:00:00Z,30.3288,-87.8293,1.8,10.1,11111222 
DISL,ioos:station:DISL:BSCA:1,2018-07-01T02:30:00Z,30.3288,-87.8293,1.8,10.1,11111222 
DISL,ioos:station:DISL:BSCA:1,2018-07-01T03:00:00Z,30.3288,-87.8293,1.7,10.1,11111222 
DISL,ioos:station:DISL:BSCA:1,2018-07-01T03:30:00Z,30.3288,-87.8293,1.7,10.2,11111222 
DISL,ioos:station:DISL:BSCA:1,2018-07-01T04:00:00Z,30.3288,-87.8293,1.7,10.0,11111222 
DISL,ioos:station:DISL:BSCA:1,2018-07-01T04:30:00Z,30.3288,-87.8293,1.8,10.3,11111222 
DISL,ioos:station:DISL:BSCA:1,2018-07-01T05:00:00Z,30.3288,-87.8293,1.7,10.4,11111222 
DISL,ioos:station:DISL:BSCA:1,2018-07-01T05:30:00Z,30.3288,-87.8293,1.7,10.0,11111222 
DISL,ioos:station:DISL:BSCA:1,2018-07-01T06:00:00Z,30.3288,-87.8293,1.7,10.2,11111222 
DISL,ioos:station:DISL:BSCA:1,2018-07-01T06:30:00Z,30.3288,-87.8293,1.7,10.4,11111222 
DISL,ioos:station:DISL:BSCA:1,2018-07-01T07:00:00Z,30.3288,-87.8293,1.7,10.4,11111222 
DISL,ioos:station:DISL:BSCA:1,2018-07-01T07:30:00Z,30.3288,-87.8293,1.7,10.2,11111222 
DISL,ioos:station:DISL:BSCA:1,2018-07-01T08:00:00Z,30.3288,-87.8293,1.8,10.5,11111222 
DISL,ioos:station:DISL:BSCA:1,2018-07-01T08:30:00Z,30.3288,-87.8293,1.8,10.5,11111222 
DISL,ioos:station:DISL:BSCA:1,2018-07-01T09:00:00Z,30.3288,-87.8293,1.8,10.3,11111222 
DISL,ioos:station:DISL:BSCA:1,2018-07-01T09:30:00Z,30.3288,-87.8293,1.9,10.4,11111222 
DISL,ioos:station:DISL:BSCA:1,2018-07-01T10:00:00Z,30.3288,-87.8293,1.9,10.6,11111222 
DISL,ioos:station:DISL:BSCA:1,2018-07-01T10:30:00Z,30.3288,-87.8293,2.0,10.9,11111222 
DISL,ioos:station:DISL:BSCA:1,2018-07-01T11:00:00Z,30.3288,-87.8293,2.0,11.1,11111222 
DISL,ioos:station:DISL:BSCA:1,2018-07-01T11:30:00Z,30.3288,-87.8293,2.0,11.1,11111222 
DISL,ioos:station:DISL:BSCA:1,2018-07-01T12:00:00Z,30.3288,-87.8293,2.0,11.1,11111222 
DISL,ioos:station:DISL:BSCA:1,2018-07-01T12:30:00Z,30.3288,-87.8293,2.0,11.2,11111222 
DISL,ioos:station:DISL:BSCA:1,2018-07-01T13:00:00Z,30.3288,-87.8293,2.1,11.0,11111222 
DISL,ioos:station:DISL:BSCA:1,2018-07-01T13:30:00Z,30.3288,-87.8293,2.1,11.5,11111222 
DISL,ioos:station:DISL:BSCA:1,2018-07-01T14:00:00Z,30.3288,-87.8293,2.1,11.6,11111222 
DISL,ioos:station:DISL:BSCA:1,2018-07-01T14:30:00Z,30.3288,-87.8293,2.1,11.6,11111222 
DISL,ioos:station:DISL:BSCA:1,2018-07-01T15:00:00Z,30.3288,-87.8293,2.1,11.8,11111222 
DISL,ioos:station:DISL:BSCA:1,2018-07-01T15:30:00Z,30.3288,-87.8293,2.2,11.8,11111222 
DISL,ioos:station:DISL:BSCA:1,2018-07-01T16:00:00Z,30.3288,-87.8293,2.2,11.9,11111222 
DISL,ioos:station:DISL:BSCA:1,2018-07-01T16:30:00Z,30.3288,-87.8293,2.2,12.0,11111222 
DISL,ioos:station:DISL:BSCA:1,2018-07-01T17:00:00Z,30.3288,-87.8293,2.2,12.0,11111222 
DISL,ioos:station:DISL:BSCA:1,2018-07-01T17:30:00Z,30.3288,-87.8293,2.3,12.0,11111222 
DISL,ioos:station:DISL:BSCA:1,2018-07-01T18:00:00Z,30.3288,-87.8293,2.3,12.0,11111222 
DISL,ioos:station:DISL:BSCA:1,2018-07-01T18:30:00Z,30.3288,-87.8293,2.3,11.9,11111222 
DISL,ioos:station:DISL:BSCA:1,2018-07-01T19:00:00Z,30.3288,-87.8293,2.3,11.9,11111222 
DISL,ioos:station:DISL:BSCA:1,2018-07-01T19:30:00Z,30.3288,-87.8293,2.3,11.8,11111222 
DISL,ioos:station:DISL:BSCA:1,2018-07-01T20:00:00Z,30.3288,-87.8293,2.2,11.9,11111222 
DISL,ioos:station:DISL:BSCA:1,2018-07-01T20:30:00Z,30.3288,-87.8293,2.2,11.7,11111222 
DISL,ioos:station:DISL:BSCA:1,2018-07-01T21:00:00Z,30.3288,-87.8293,2.2,11.7,11111222 
DISL,ioos:station:DISL:BSCA:1,2018-07-01T21:30:00Z,30.3288,-87.8293,2.1,11.5,11111222 
DISL,ioos:station:DISL:BSCA:1,2018-07-01T22:00:00Z,30.3288,-87.8293,2.0,10.3,11111222 
DISL,ioos:station:DISL:BSCA:1,2018-07-01T22:30:00Z,30.3288,-87.8293,2.0,10.8,11111222 
DISL,ioos:station:DISL:BSCA:1,2018-07-01T23:00:00Z,30.3288,-87.8293,1.9,10.4,11111222 
DISL,ioos:station:DISL:BSCA:1,2018-07-01T23:30:00Z,30.3288,-87.8293,2.0,11.1,11111222 
DISL,ioos:station:DISL:BSCA:1,2018-07-02T00:00:00Z,30.3288,-87.8293,2.0,11.0,11111222 
DISL,ioos:station:DISL:BSCA:1,2018-07-02T00:30:00Z,30.3288,-87.8293,2.0,11.2,11111222 
DISL,ioos:station:DISL:BSCA:1,2018-07-02T01:00:00Z,30.3288,-87.8293,1.9,11.2,11111222 
DISL,ioos:station:DISL:BSCA:1,2018-07-02T01:30:00Z,30.3288,-87.8293,1.9,11.0,11111222 
DISL,ioos:station:DISL:BSCA:1,2018-07-02T02:00:00Z,30.3288,-87.8293,1.9,11.0,11111222 
DISL,ioos:station:DISL:BSCA:1,2018-07-02T02:30:00Z,30.3288,-87.8293,1.8,11.3,11111222 
DISL,ioos:station:DISL:BSCA:1,2018-07-02T03:00:00Z,30.3288,-87.8293,1.8,10.7,11111222 
DISL,ioos:station:DISL:BSCA:1,2018-07-02T03:30:00Z,30.3288,-87.8293,1.8,10.0,11111222 
DISL,ioos:station:DISL:BSCA:1,2018-07-02T04:00:00Z,30.3288,-87.8293,1.8,11.1,11111222 
DISL,ioos:station:DISL:BSCA:1,2018-07-02T04:30:00Z,30.3288,-87.8293,1.8,10.8,11111222 
DISL,ioos:station:DISL:BSCA:1,2018-07-02T05:00:00Z,30.3288,-87.8293,1.8,10.6,11111222 
DISL,ioos:station:DISL:BSCA:1,2018-07-02T05:30:00Z,30.3288,-87.8293,1.8,11.1,11111222 
DISL,ioos:station:DISL:BSCA:1,2018-07-02T06:00:00Z,30.3288,-87.8293,1.8,11.1,11111222 
DISL,ioos:station:DISL:BSCA:1,2018-07-02T06:30:00Z,30.3288,-87.8293,1.8,10.2,11111222 
DISL,ioos:station:DISL:BSCA:1,2018-07-02T07:00:00Z,30.3288,-87.8293,1.8,11.3,11111222 
DISL,ioos:station:DISL:BSCA:1,2018-07-02T07:30:00Z,30.3288,-87.8293,1.9,11.1,11111222 
DISL,ioos:station:DISL:BSCA:1,2018-07-02T08:00:00Z,30.3288,-87.8293,1.9,10.8,11111222 
DISL,ioos:station:DISL:BSCA:1,2018-07-02T08:30:00Z,30.3288,-87.8293,1.9,10.8,11111222 
DISL,ioos:station:DISL:BSCA:1,2018-07-02T09:00:00Z,30.3288,-87.8293,1.9,10.9,11111222 
DISL,ioos:station:DISL:BSCA:1,2018-07-02T09:30:00Z,30.3288,-87.8293,1.9,10.6,11111222 
DISL,ioos:station:DISL:BSCA:1,2018-07-02T10:00:00Z,30.3288,-87.8293,2.0,10.4,11111222 
DISL,ioos:station:DISL:BSCA:1,2018-07-02T10:30:00Z,30.3288,-87.8293,2.0,10.5,11111222 
DISL,ioos:station:DISL:BSCA:1,2018-07-02T11:00:00Z,30.3288,-87.8293,2.0,10.5,11111222 
DISL,ioos:station:DISL:BSCA:1,2018-07-02T11:30:00Z,30.3288,-87.8293,2.0,10.1,11111222 
DISL,ioos:station:DISL:BSCA:1,2018-07-02T12:00:00Z,30.3288,-87.8293,2.0,10.5,11111222 
DISL,ioos:station:DISL:BSCA:1,2018-07-02T12:30:00Z,30.3288,-87.8293,2.0,10.5,11111222 
DISL,ioos:station:DISL:BSCA:1,2018-07-02T13:00:00Z,30.3288,-87.8293,2.1,10.0,11111222 
DISL,ioos:station:DISL:BSCA:1,2018-07-02T13:30:00Z,30.3288,-87.8293,2.1,9.8,11111222 
DISL,ioos:station:DISL:BSCA:1,2018-07-02T14:00:00Z,30.3288,-87.8293,2.1,9.9,11111222 
DISL,ioos:station:DISL:BSCA:1,2018-07-02T14:30:00Z,30.3288,-87.8293,2.1,9.8,11111222 
DISL,ioos:station:DISL:BSCA:1,2018-07-02T15:00:00Z,30.3288,-87.8293,2.1,9.7,11111222 
DISL,ioos:station:DISL:BSCA:1,2018-07-02T15:30:00Z,30.3288,-87.8293,2.2,9.8,11111222 
DISL,ioos:station:DISL:BSCA:1,2018-07-02T16:00:00Z,30.3288,-87.8293,2.2,9.9,11111222 
DISL,ioos:station:DISL:BSCA:1,2018-07-02T16:30:00Z,30.3288,-87.8293,2.2,10.0,11111222 
DISL,ioos:station:DISL:BSCA:1,2018-07-02T17:00:00Z,30.3288,-87.8293,2.2,10.1,11111222 
DISL,ioos:station:DISL:BSCA:1,2018-07-02T17:30:00Z,30.3288,-87.8293,2.2,10.2,11111222 
DISL,ioos:station:DISL:BSCA:1,2018-07-02T18:00:00Z,30.3288,-87.8293,2.3,10.2,11111222 
DISL,ioos:station:DISL:BSCA:1,2018-07-02T18:30:00Z,30.3288,-87.8293,2.3,10.1,11111222 
DISL,ioos:station:DISL:BSCA:1,2018-07-02T19:00:00Z,30.3288,-87.8293,2.3,10.6,11111222 
DISL,ioos:station:DISL:BSCA:1,2018-07-02T19:30:00Z,30.3288,-87.8293,2.3,11.0,11111222 
DISL,ioos:station:DISL:BSCA:1,2018-07-02T20:00:00Z,30.3288,-87.8293,2.3,11.0,11111222 
DISL,ioos:station:DISL:BSCA:1,2018-07-02T20:30:00Z,30.3288,-87.8293,2.3,10.8,11111222 
DISL,ioos:station:DISL:BSCA:1,2018-07-02T21:00:00Z,30.3288,-87.8293,2.2,10.8,11111222 
DISL,ioos:station:DISL:BSCA:1,2018-07-02T21:30:00Z,30.3288,-87.8293,2.2,10.6,11111222 
DISL,ioos:station:DISL:BSCA:1,2018-07-02T22:00:00Z,30.3288,-87.8293,2.2,10.5,11111222 
DISL,ioos:station:DISL:BSCA:1,2018-07-02T22:30:00Z,30.3288,-87.8293,2.1,10.2,11111222 
DISL,ioos:station:DISL:BSCA:1,2018-07-02T23:00:00Z,30.3288,-87.8293,2.1,10.0,11111222 
DISL,ioos:station:DISL:BSCA:1,2018-07-02T23:30:00Z,30.3288,-87.8293,2.1,10.1,11111222 
DISL,ioos:station:DISL:BSCA:1,2018-07-03T00:00:00Z,30.3288,-87.8293,2.1,10.2,11111222 
DISL,ioos:station:DISL:BSCA:1,2018-07-03T00:30:00Z,30.3288,-87.8293,2.0,10.1,11111222 
DISL,ioos:station:DISL:BSCA:1,2018-07-03T01:00:00Z,30.3288,-87.8293,2.0,10.1,11111222 
DISL,ioos:station:DISL:BSCA:1,2018-07-03T01:30:00Z,30.3288,-87.8293,1.9,10.1,11111222 
DISL,ioos:station:DISL:BSCA:1,2018-07-03T02:00:00Z,30.3288,-87.8293,1.9,10.0,11111222 
DISL,ioos:station:DISL:BSCA:1,2018-07-03T02:30:00Z,30.3288,-87.8293,1.9,10.0,11111222 
DISL,ioos:station:DISL:BSCA:1,2018-07-03T03:00:00Z,30.3288,-87.8293,1.8,10.0,11111222 
DISL,ioos:station:DISL:BSCA:1,2018-07-03T03:30:00Z,30.3288,-87.8293,1.8,10.0,11111222 
DISL,ioos:station:DISL:BSCA:1,2018-07-03T04:00:00Z,30.3288,-87.8293,1.8,10.0,11111222 
DISL,ioos:station:DISL:BSCA:1,2018-07-03T04:30:00Z,30.3288,-87.8293,1.8,10.0,11111222 
DISL,ioos:station:DISL:BSCA:1,2018-07-03T05:00:00Z,30.3288,-87.8293,1.8,10.0,11111222 
DISL,ioos:station:DISL:BSCA:1,2018-07-03T05:30:00Z,30.3288,-87.8293,1.8,10.0,11111222 
DISL,ioos:station:DISL:BSCA:1,2018-07-03T06:00:00Z,30.3288,-87.8293,1.8,10.0,11111222 
DISL,ioos:station:DISL:BSCA:1,2018-07-03T06:30:00Z,30.3288,-87.8293,1.8,10.0,11111222 
DISL,ioos:station:DISL:BSCA:1,2018-07-03T07:00:00Z,30.3288,-87.8293,1.9,10.0,11111222 
DISL,ioos:station:DISL:BSCA:1,2018-07-03T07:30:00Z,30.3288,-87.8293,1.9,10.0,11111222 
DISL,ioos:station:DISL:BSCA:1,2018-07-03T08:00:00Z,30.3288,-87.8293,1.9,10.0,11111222 
DISL,ioos:station:DISL:BSCA:1,2018-07-03T08:30:00Z,30.3288,-87.8293,1.9,10.0,11111222 
DISL,ioos:station:DISL:BSCA:1,2018-07-03T09:00:00Z,30.3288,-87.8293,2.0,10.0,11111222 
DISL,ioos:station:DISL:BSCA:1,2018-07-03T09:30:00Z,30.3288,-87.8293,2.0,10.0,11111222 
DISL,ioos:station:DISL:BSCA:1,2018-07-03T10:00:00Z,30.3288,-87.8293,2.0,10.1,11111222 
DISL,ioos:station:DISL:BSCA:1,2018-07-03T10:30:00Z,30.3288,-87.8293,2.0,10.2,11111222 
DISL,ioos:station:DISL:BSCA:1,2018-07-03T11:00:00Z,30.3288,-87.8293,2.0,10.3,11111222 
DISL,ioos:station:DISL:BSCA:1,2018-07-03T11:30:00Z,30.3288,-87.8293,2.1,10.5,11111222 
DISL,ioos:station:DISL:BSCA:1,2018-07-03T12:00:00Z,30.3288,-87.8293,2.1,10.3,11111222 
DISL,ioos:station:DISL:BSCA:1,2018-07-03T12:30:00Z,30.3288,-87.8293,2.1,10.4,11111222 
DISL,ioos:station:DISL:BSCA:1,2018-07-03T13:00:00Z,30.3288,-87.8293,2.1,10.4,11111222 
DISL,ioos:station:DISL:BSCA:1,2018-07-03T13:30:00Z,30.3288,-87.8293,2.1,10.5,11111222 
DISL,ioos:station:DISL:BSCA:1,2018-07-03T14:00:00Z,30.3288,-87.8293,2.1,10.6,11111222 
DISL,ioos:station:DISL:BSCA:1,2018-07-03T14:30:00Z,30.3288,-87.8293,2.1,10.6,11111222 
DISL,ioos:station:DISL:BSCA:1,2018-07-03T15:00:00Z,30.3288,-87.8293,2.1,10.7,11111222 
DISL,ioos:station:DISL:BSCA:1,2018-07-03T15:30:00Z,30.3288,-87.8293,2.2,10.8,11111222 
DISL,ioos:station:DISL:BSCA:1,2018-07-03T16:00:00Z,30.3288,-87.8293,2.2,10.9,11111222 
DISL,ioos:station:DISL:BSCA:1,2018-07-03T16:30:00Z,30.3288,-87.8293,2.2,10.7,11111222 
DISL,ioos:station:DISL:BSCA:1,2018-07-03T17:00:00Z,30.3288,-87.8293,2.2,10.7,11111222 
DISL,ioos:station:DISL:BSCA:1,2018-07-03T17:30:00Z,30.3288,-87.8293,2.2,10.7,11111222 
DISL,ioos:station:DISL:BSCA:1,2018-07-03T18:00:00Z,30.3288,-87.8293,2.2,10.7,11111222 
DISL,ioos:station:DISL:BSCA:1,2018-07-03T18:30:00Z,30.3288,-87.8293,2.2,10.7,11111222 
DISL,ioos:station:DISL:BSCA:1,2018-07-03T19:00:00Z,30.3288,-87.8293,2.2,10.8,11111222 
DISL,ioos:station:DISL:BSCA:1,2018-07-03T19:30:00Z,30.3288,-87.8293,2.2,10.8,11111222 
DISL,ioos:station:DISL:BSCA:1,2018-07-03T20:00:00Z,30.3288,-87.8293,2.2,10.8,11111222 
DISL,ioos:station:DISL:BSCA:1,2018-07-03T20:30:00Z,30.3288,-87.8293,2.2,10.8,11111222 
DISL,ioos:station:DISL:BSCA:1,2018-07-03T21:00:00Z,30.3288,-87.8293,2.2,10.8,11111222 
DISL,ioos:station:DISL:BSCA:1,2018-07-03T21:30:00Z,30.3288,-87.8293,2.2,10.9,11111222 
DISL,ioos:station:DISL:BSCA:1,2018-07-03T22:00:00Z,30.3288,-87.8293,2.2,10.9,11111222 
DISL,ioos:station:DISL:BSCA:1,2018-07-03T22:30:00Z,30.3288,-87.8293,2.2,10.9,11111222 
DISL,ioos:station:DISL:BSCA:1,2018-07-03T23:00:00Z,30.3288,-87.8293,2.1,10.9,11111222 
DISL,ioos:station:DISL:BSCA:1,2018-07-03T23:30:00Z,30.3288,-87.8293,2.1,10.9,11111222 
DISL,ioos:station:DISL:BSCA:1,2018-07-04T00:00:00Z,30.3288,-87.8293,2.1,10.9,11111222 
DISL,ioos:station:DISL:BSCA:1,2018-07-04T00:30:00Z,30.3288,-87.8293,2.1,10.9,11111222 
DISL,ioos:station:DISL:BSCA:1,2018-07-04T01:00:00Z,30.3288,-87.8293,2.041,10.88,1111122 
DISL,ioos:station:DISL:BSCA:1,2018-07-04T01:30:00Z,30.3288,-87.8293,2.0,10.9,11111222 
DISL,ioos:station:DISL:BSCA:1,2018-07-04T02:00:00Z,30.3288,-87.8293,2.0,10.9,11111222 
DISL,ioos:station:DISL:BSCA:1,2018-07-04T02:30:00Z,30.3288,-87.8293,2.0,10.9,11111222 
DISL,ioos:station:DISL:BSCA:1,2018-07-04T03:00:00Z,30.3288,-87.8293,1.9,10.9,11111222 
DISL,ioos:station:DISL:BSCA:1,2018-07-04T03:30:00Z,30.3288,-87.8293,1.9,10.8,11111222 
DISL,ioos:station:DISL:BSCA:1,2018-07-04T04:00:00Z,30.3288,-87.8293,1.9,10.8,11111222 
DISL,ioos:station:DISL:BSCA:1,2018-07-04T04:30:00Z,30.3288,-87.8293,1.9,10.8,11111222 
DISL,ioos:station:DISL:BSCA:1,2018-07-04T05:00:00Z,30.3288,-87.8293,1.9,10.8,11111222 
DISL,ioos:station:DISL:BSCA:1,2018-07-04T05:30:00Z,30.3288,-87.8293,1.8,10.8,11111222 
DISL,ioos:station:DISL:BSCA:1,2018-07-04T06:00:00Z,30.3288,-87.8293,1.9,10.8,11111222 
DISL,ioos:station:DISL:BSCA:1,2018-07-04T06:30:00Z,30.3288,-87.8293,1.9,10.5,11111222 
DISL,ioos:station:DISL:BSCA:1,2018-07-04T07:00:00Z,30.3288,-87.8293,1.9,10.4,11111222 
DISL,ioos:station:DISL:BSCA:1,2018-07-04T07:30:00Z,30.3288,-87.8293,1.9,10.5,11111222 
DISL,ioos:station:DISL:BSCA:1,2018-07-04T08:00:00Z,30.3288,-87.8293,1.9,11.0,11111222 
DISL,ioos:station:DISL:BSCA:1,2018-07-04T08:30:00Z,30.3288,-87.8293,1.9,10.8,11111222 
DISL,ioos:station:DISL:BSCA:1,2018-07-04T09:00:00Z,30.3288,-87.8293,2.0,10.8,11111222 
DISL,ioos:station:DISL:BSCA:1,2018-07-04T09:30:00Z,30.3288,-87.8293,2.0,10.5,11111222 
DISL,ioos:station:DISL:BSCA:1,2018-07-04T10:00:00Z,30.3288,-87.8293,2.0,11.0,11111222 
DISL,ioos:station:DISL:BSCA:1,2018-07-04T10:30:00Z,30.3288,-87.8293,2.0,11.0,11111222 
DISL,ioos:station:DISL:BSCA:1,2018-07-04T11:00:00Z,30.3288,-87.8293,2.0,10.8,11111222 
DISL,ioos:station:DISL:BSCA:1,2018-07-04T11:30:00Z,30.3288,-87.8293,2.1,10.8,11111222 
DISL,ioos:station:DISL:BSCA:1,2018-07-04T12:00:00Z,30.3288,-87.8293,2.1,11.9,11111222 
DISL,ioos:station:DISL:BSCA:1,2018-07-04T12:30:00Z,30.3288,-87.8293,2.1,11.3,11111222 
DISL,ioos:station:DISL:BSCA:1,2018-07-04T13:00:00Z,30.3288,-87.8293,2.1,12.0,11111222 
DISL,ioos:station:DISL:BSCA:1,2018-07-04T13:30:00Z,30.3288,-87.8293,2.1,12.2,11111222 
DISL,ioos:station:DISL:BSCA:1,2018-07-04T14:00:00Z,30.3288,-87.8293,2.1,12.4,11111222 
DISL,ioos:station:DISL:BSCA:1,2018-07-04T14:30:00Z,30.3288,-87.8293,2.1,12.5,11111222 
DISL,ioos:station:DISL:BSCA:1,2018-07-04T15:00:00Z,30.3288,-87.8293,2.2,12.6,11111222 
DISL,ioos:station:DISL:BSCA:1,2018-07-04T15:30:00Z,30.3288,-87.8293,2.2,12.9,11111222 
DISL,ioos:station:DISL:BSCA:1,2018-07-04T16:00:00Z,30.3288,-87.8293,2.2,13.1,11111222 
DISL,ioos:station:DISL:BSCA:1,2018-07-04T16:30:00Z,30.3288,-87.8293,2.2,13.1,11111222 
DISL,ioos:station:DISL:BSCA:1,2018-07-04T17:00:00Z,30.3288,-87.8293,2.2,13.5,11111222 
DISL,ioos:station:DISL:BSCA:1,2018-07-04T17:30:00Z,30.3288,-87.8293,2.2,13.7,11111222 
DISL,ioos:station:DISL:BSCA:1,2018-07-04T18:00:00Z,30.3288,-87.8293,2.2,13.7,11111222 
DISL,ioos:station:DISL:BSCA:1,2018-07-04T18:30:00Z,30.3288,-87.8293,2.2,13.9,11111222 
DISL,ioos:station:DISL:BSCA:1,2018-07-04T19:00:00Z,30.3288,-87.8293,2.2,14.0,11111222 
DISL,ioos:station:DISL:BSCA:1,2018-07-04T19:30:00Z,30.3288,-87.8293,2.2,14.0,11111222 
DISL,ioos:station:DISL:BSCA:1,2018-07-04T20:00:00Z,30.3288,-87.8293,2.2,13.9,11111222 
DISL,ioos:station:DISL:BSCA:1,2018-07-04T20:30:00Z,30.3288,-87.8293,2.2,14.0,11111222 
DISL,ioos:station:DISL:BSCA:1,2018-07-04T21:00:00Z,30.3288,-87.8293,2.2,14.0,11111222 
DISL,ioos:station:DISL:BSCA:1,2018-07-04T21:30:00Z,30.3288,-87.8293,2.2,14.1,11111222 
DISL,ioos:station:DISL:BSCA:1,2018-07-04T22:00:00Z,30.3288,-87.8293,2.2,14.2,11111222 
DISL,ioos:station:DISL:BSCA:1,2018-07-04T22:30:00Z,30.3288,-87.8293,2.1,14.1,11111222 
DISL,ioos:station:DISL:BSCA:1,2018-07-04T23:00:00Z,30.3288,-87.8293,2.1,14.1,11111222 
DISL,ioos:station:DISL:BSCA:1,2018-07-04T23:30:00Z,30.3288,-87.8293,2.1,14.2,11111222 
DISL,ioos:station:DISL:BSCA:1,2018-07-05T00:00:00Z,30.3288,-87.8293,2.1,14.3,11111222 
DISL,ioos:station:DISL:BSCA:1,2018-07-05T00:30:00Z,30.3288,-87.8293,2.1,14.4,11111222 
DISL,ioos:station:DISL:BSCA:1,2018-07-05T01:00:00Z,30.3288,-87.8293,2.0,14.5,11111222 
DISL,ioos:station:DISL:BSCA:1,2018-07-05T01:30:00Z,30.3288,-87.8293,2.0,14.6,11111222 
DISL,ioos:station:DISL:BSCA:1,2018-07-05T02:00:00Z,30.3288,-87.8293,2.0,14.2,11111222 
DISL,ioos:station:DISL:BSCA:1,2018-07-05T02:30:00Z,30.3288,-87.8293,2.0,14.5,11111222 
DISL,ioos:station:DISL:BSCA:1,2018-07-05T03:00:00Z,30.3288,-87.8293,1.9,14.4,11111222 
DISL,ioos:station:DISL:BSCA:1,2018-07-05T03:30:00Z,30.3288,-87.8293,1.9,14.3,11111222 
DISL,ioos:station:DISL:BSCA:1,2018-07-05T04:00:00Z,30.3288,-87.8293,1.9,14.0,11111222 
DISL,ioos:station:DISL:BSCA:1,2018-07-05T04:30:00Z,30.3288,-87.8293,1.9,14.4,11111222 
DISL,ioos:station:DISL:BSCA:1,2018-07-05T05:00:00Z,30.3288,-87.8293,1.9,13.9,11111222 
DISL,ioos:station:DISL:BSCA:1,2018-07-05T05:30:00Z,30.3288,-87.8293,1.9,13.6,11111222 
DISL,ioos:station:DISL:BSCA:1,2018-07-05T06:00:00Z,30.3288,-87.8293,1.9,14.4,11111222 
DISL,ioos:station:DISL:BSCA:1,2018-07-05T06:30:00Z,30.3288,-87.8293,1.9,14.7,11111222 
DISL,ioos:station:DISL:BSCA:1,2018-07-05T07:00:00Z,30.3288,-87.8293,1.9,14.3,11111222 
DISL,ioos:station:DISL:BSCA:1,2018-07-05T07:30:00Z,30.3288,-87.8293,1.9,14.5,11111222 
DISL,ioos:station:DISL:BSCA:1,2018-07-05T08:00:00Z,30.3288,-87.8293,1.9,14.7,11111222 
DISL,ioos:station:DISL:BSCA:1,2018-07-05T08:30:00Z,30.3288,-87.8293,1.9,14.5,11111222 
DISL,ioos:station:DISL:BSCA:1,2018-07-05T09:00:00Z,30.3288,-87.8293,1.9,14.8,11111222 
DISL,ioos:station:DISL:BSCA:1,2018-07-05T09:30:00Z,30.3288,-87.8293,1.9,15.5,11111222 
DISL,ioos:station:DISL:BSCA:1,2018-07-05T10:00:00Z,30.3288,-87.8293,2.0,16.6,11111222 
DISL,ioos:station:DISL:BSCA:1,2018-07-05T10:30:00Z,30.3288,-87.8293,2.0,17.3,11111222 
DISL,ioos:station:DISL:BSCA:1,2018-07-05T11:00:00Z,30.3288,-87.8293,2.0,18.4,11111222 
DISL,ioos:station:DISL:BSCA:1,2018-07-05T11:30:00Z,30.3288,-87.8293,2.0,18.7,11111222 
DISL,ioos:station:DISL:BSCA:1,2018-07-05T12:00:00Z,30.3288,-87.8293,2.0,19.5,11111222 
DISL,ioos:station:DISL:BSCA:1,2018-07-05T12:30:00Z,30.3288,-87.8293,2.0,19.4,11111222 
DISL,ioos:station:DISL:BSCA:1,2018-07-05T13:00:00Z,30.3288,-87.8293,2.0,19.3,11111222 
DISL,ioos:station:DISL:BSCA:1,2018-07-05T13:30:00Z,30.3288,-87.8293,2.0,19.0,11111222 
DISL,ioos:station:DISL:BSCA:1,2018-07-05T14:00:00Z,30.3288,-87.8293,2.0,19.4,11111222 
DISL,ioos:station:DISL:BSCA:1,2018-07-05T14:30:00Z,30.3288,-87.8293,2.1,19.9,11111222 
DISL,ioos:station:DISL:BSCA:1,2018-07-05T15:00:00Z,30.3288,-87.8293,2.1,20.4,11111222 
DISL,ioos:station:DISL:BSCA:1,2018-07-05T15:30:00Z,30.3288,-87.8293,2.1,20.3,11111222 
DISL,ioos:station:DISL:BSCA:1,2018-07-05T16:00:00Z,30.3288,-87.8293,2.1,20.5,11111222 
DISL,ioos:station:DISL:BSCA:1,2018-07-05T16:30:00Z,30.3288,-87.8293,2.1,20.6,11111222 
DISL,ioos:station:DISL:BSCA:1,2018-07-05T17:00:00Z,30.3288,-87.8293,2.1,20.7,11111222 
DISL,ioos:station:DISL:BSCA:1,2018-07-05T17:30:00Z,30.3288,-87.8293,2.1,20.8,11111222 
DISL,ioos:station:DISL:BSCA:1,2018-07-05T18:00:00Z,30.3288,-87.8293,2.1,20.6,11111222 
DISL,ioos:station:DISL:BSCA:1,2018-07-05T18:30:00Z,30.3288,-87.8293,2.1,19.9,11111222 
DISL,ioos:station:DISL:BSCA:1,2018-07-05T19:00:00Z,30.3288,-87.8293,2.1,19.9,11111222 
DISL,ioos:station:DISL:BSCA:1,2018-07-05T19:30:00Z,30.3288,-87.8293,2.1,21.1,11111222 
DISL,ioos:station:DISL:BSCA:1,2018-07-05T20:00:00Z,30.3288,-87.8293,2.1,20.6,11111222 
DISL,ioos:station:DISL:BSCA:1,2018-07-05T20:30:00Z,30.3288,-87.8293,2.1,18.8,11111222 
DISL,ioos:station:DISL:BSCA:1,2018-07-05T21:00:00Z,30.3288,-87.8293,2.1,20.8,11111222 
DISL,ioos:station:DISL:BSCA:1,2018-07-05T21:30:00Z,30.3288,-87.8293,2.1,20.7,11111222 
DISL,ioos:station:DISL:BSCA:1,2018-07-05T22:00:00Z,30.3288,-87.8293,2.1,18.8,11111222 
DISL,ioos:station:DISL:BSCA:1,2018-07-05T22:30:00Z,30.3288,-87.8293,2.1,19.6,11111222 
DISL,ioos:station:DISL:BSCA:1,2018-07-05T23:00:00Z,30.3288,-87.8293,2.1,18.6,11111222 
DISL,ioos:station:DISL:BSCA:1,2018-07-05T23:30:00Z,30.3288,-87.8293,2.1,17.2,11111222 
DISL,ioos:station:DISL:BSCA:1,2018-07-06T00:00:00Z,30.3288,-87.8293,2.1,18.5,11111222 
DISL,ioos:station:DISL:BSCA:1,2018-07-06T00:30:00Z,30.3288,-87.8293,2.1,16.0,11111222 
DISL,ioos:station:DISL:BSCA:1,2018-07-06T01:00:00Z,30.3288,-87.8293,2.1,18.7,11111222 
DISL,ioos:station:DISL:BSCA:1,2018-07-06T01:30:00Z,30.3288,-87.8293,2.1,17.0,11111222 
DISL,ioos:station:DISL:BSCA:1,2018-07-06T02:00:00Z,30.3288,-87.8293,2.1,17.5,11111222 
DISL,ioos:station:DISL:BSCA:1,2018-07-06T02:30:00Z,30.3288,-87.8293,2.1,16.2,11111222 
DISL,ioos:station:DISL:BSCA:1,2018-07-06T03:00:00Z,30.3288,-87.8293,2.1,16.0,11111222 
DISL,ioos:station:DISL:BSCA:1,2018-07-06T03:30:00Z,30.3288,-87.8293,2.0,15.8,11111222 
DISL,ioos:station:DISL:BSCA:1,2018-07-06T04:00:00Z,30.3288,-87.8293,2.0,15.5,11111222 
DISL,ioos:station:DISL:BSCA:1,2018-07-06T04:30:00Z,30.3288,-87.8293,2.0,15.4,11111222 
DISL,ioos:station:DISL:BSCA:1,2018-07-06T05:00:00Z,30.3288,-87.8293,2.0,16.2,11111222 
DISL,ioos:station:DISL:BSCA:1,2018-07-06T05:30:00Z,30.3288,-87.8293,2.0,17.4,11111222 
DISL,ioos:station:DISL:BSCA:1,2018-07-06T06:00:00Z,30.3288,-87.8293,2.0,19.3,11111222 
DISL,ioos:station:DISL:BSCA:1,2018-07-06T06:30:00Z,30.3288,-87.8293,2.0,18.9,11111222 
DISL,ioos:station:DISL:BSCA:1,2018-07-06T07:00:00Z,30.3288,-87.8293,1.9,20.2,11111222 
DISL,ioos:station:DISL:BSCA:1,2018-07-06T07:30:00Z,30.3288,-87.8293,1.9,20.4,11111222 
DISL,ioos:station:DISL:BSCA:1,2018-07-06T08:00:00Z,30.3288,-87.8293,2.0,20.8,11111222 
DISL,ioos:station:DISL:BSCA:1,2018-07-06T08:30:00Z,30.3288,-87.8293,2.0,20.8,11111222 
DISL,ioos:station:DISL:BSCA:1,2018-07-06T09:00:00Z,30.3288,-87.8293,2.0,20.9,11111222 
DISL,ioos:station:DISL:BSCA:1,2018-07-06T09:30:00Z,30.3288,-87.8293,2.0,21.0,11111222 
DISL,ioos:station:DISL:BSCA:1,2018-07-06T10:00:00Z,30.3288,-87.8293,2.0,21.0,11111222 
DISL,ioos:station:DISL:BSCA:1,2018-07-06T10:30:00Z,30.3288,-87.8293,2.0,21.4,11111222 
DISL,ioos:station:DISL:BSCA:1,2018-07-06T11:00:00Z,30.3288,-87.8293,2.0,21.7,11111222 
DISL,ioos:station:DISL:BSCA:1,2018-07-06T11:30:00Z,30.3288,-87.8293,2.1,21.9,11111222 
DISL,ioos:station:DISL:BSCA:1,2018-07-06T12:00:00Z,30.3288,-87.8293,2.1,21.5,11111222 
DISL,ioos:station:DISL:BSCA:1,2018-07-06T12:30:00Z,30.3288,-87.8293,2.1,21.6,11111222 
DISL,ioos:station:DISL:BSCA:1,2018-07-06T13:00:00Z,30.3288,-87.8293,2.1,22.2,11111222 
DISL,ioos:station:DISL:BSCA:1,2018-07-06T13:30:00Z,30.3288,-87.8293,2.1,22.5,11111222 
DISL,ioos:station:DISL:BSCA:1,2018-07-06T14:00:00Z,30.3288,-87.8293,2.1,22.6,11111222 
DISL,ioos:station:DISL:BSCA:1,2018-07-06T14:30:00Z,30.3288,-87.8293,2.1,22.6,11111222 
DISL,ioos:station:DISL:BSCA:1,2018-07-06T15:00:00Z,30.3288,-87.8293,2.1,22.7,11111222 
DISL,ioos:station:DISL:BSCA:1,2018-07-06T15:30:00Z,30.3288,-87.8293,2.1,22.6,11111222 
DISL,ioos:station:DISL:BSCA:1,2018-07-06T16:00:00Z,30.3288,-87.8293,2.1,22.7,11111222 
DISL,ioos:station:DISL:BSCA:1,2018-07-06T16:30:00Z,30.3288,-87.8293,2.1,22.8,11111222 